FALCON 9 R/B, 47307

Orbit data source: Space-Track

FALCON 9 R/B, 47307 is space debris in HEO originally from a launch on Fri, 08 Jan 2021 UTC launched from the Air Force Eastern Test Range (AFETR). Debris objects in space refer to the collection of defunct objects orbiting the Earth. Examples of debris include non-operational satellites, rocket bodies, and fragments generated from explosions, collisions, or faulty payload assembly.

Loading next visibility...
Identifier
47307, 2021-001B
Orbit
HEO
Country
Flag of USUS
Related business
Manufacturer
SpaceX
Mission
Spacecraft
Bus & Motor
F9ST2, Unknown motor
Mass
~4,000 kg wet, ~4,000 kg dry
Launch date (UTC)
2021-01-08 (5 years ago)
Launch vehicle
Unknown
Launch site
Air Force Eastern Test Range (AFETR)
Object type
Payload
Rocket body
Debris
Shape & HBR
Cyl, 7.8 m
Radar Cross Section
39.980 m², Large (>1 m²)

Expand to show TLE details & history
Last TLE update: 3 days ago

TLE from 3 days ago
0 FALCON 9 R/B
1 47307U 21001B   26170.92424972  .00000930  00000-0  99154-3 0  9993
2 47307  15.4892 186.8939 7797123  34.8921 357.3080  1.65359335 30200
Epoch: 2026-06-19T22:10Z
TLE epoch observation values (Epoch: 2026-06-19T22:10:55.175Z)
Latitude
-0.0001°
Longitude
-54.12559°
Altitude
852.649 km
Speed
9.851 km/s
True Right ascension
12h 27m 00s
True Declination
0° 00' 00"
Sunlit
Object was in daylight at epoch
Visualization orbit readout
Latitude
Unknown
Longitude
Unknown
Altitude
Unknown
Speed
Unknown
Apparent Right ascension
Unknown
Apparent Declination
Unknown
Sunlit
N/A
Visualization observer readout
Local Sidereal Time
21:28:42
Azimuth
Unknown
Elevation
Unknown
Doppler factor
Unknown
Orbital elements
Apogee altitude
47,392.15 km
Perigee altitude
277.395 km
Semi-major axis
30,212.91 km
Eccentricity
0.77971
Inclination
15.4892°
RAAN
186.8939°
Arg. of periapsis
34.8921°
True anomaly
326.95283°
Mean anomaly
357.308°
Eccentric anomaly
348.08308°
Mean motion
0.41329 °/min
Orbital period
871.06 mins
BSTAR
0.00099154
Loading maneuver chart data...
Computing Atmospheric mass density...
Loading historical data...
Loading historical data...
Loading historical data...
Loading historical data...
Loading historical data...
Loading historical data...
Loading historical data...
Other satellites on launch #1 in the year 2021 (2021-01-08 UTC)

Documentation

Showing up to 5 results
|